Flag for U.S.A. Weather past 2 weeks in Wheaton, Illinois, U.S.A.

Now
49 °F

Sunny.


Feels Like: 43 °F
Forecast: 38 / 57 °F
Wind: 16 mph from Southeast

Location: Dupage Airport


UV Index: 0 (Low)

Visibility: 10 mi


Pressure: 30.13 "Hg

Humidity: 39%

Dew point: 25 °F

Location of WheatonLocation

Historic Weather in Wheaton

°F

Wheaton temperature yesterday

Maximum temperature yesterday: 37 °F (at 5:52 PM)
Minimum temperature yesterday: 24 °F (at 5:52 AM)
Average temperature yesterday: 30 °F

Past Weeks' High & Low Weather Summary

 TemperatureHumidityPressure
High79 °F (Apr 12, 3:52 PM)100% (Apr 4, 2:59 AM)30.31 "Hg (Apr 4, 2:59 AM)
Low24 °F (Apr 15, 5:52 AM)16% (Apr 11, 11:52 AM)29.35 "Hg (Apr 14, 2:52 AM)
Average46 °F63%29.91 "Hg
* Reported Apr 1 6:52 PM — Apr 16 6:52 PM, Wheaton, Weather by CustomWeather, © 2014

Note: Actual official high and low records may vary slightly from our data, if they occured in-between our weather recording intervals... More about our weather records

Advertising

Historic Weather Conditions — Data for Previous 24 hours

 ConditionsComfort  
Time TempWeatherWind HumidityBarometerVisibility
6:52 PM
Apr 16
50 °FSunny.21 mph36%30.11 "Hg10 mi
5:52 PM52 °FSunny.20 mph32%30.12 "Hg10 mi
4:52 PM53 °FSunny.20 mph34%30.14 "Hg10 mi
3:52 PM52 °FSunny.18 mph35%30.16 "Hg10 mi
2:52 PM52 °FSunny.22 mph37%30.18 "Hg10 mi
1:52 PM50 °FSunny.24 mph41%30.21 "Hg10 mi
12:52 PM49 °FSunny.22 mph43%30.23 "Hg10 mi
11:52 AM47 °FSunny.17 mph46%30.27 "Hg10 mi
10:52 AM43 °FSunny.20 mph51%30.29 "Hg10 mi
9:52 AM40 °FSunny.17 mph55%30.30 "Hg10 mi
8:52 AM37 °FSunny.12 mph62%30.31 "Hg10 mi
7:52 AM33 °FSunny.12 mph70%30.30 "Hg10 mi
6:52 AM30 °FClear.10 mph72%30.28 "Hg10 mi
5:52 AM29 °FClear.9 mph72%30.27 "Hg10 mi
4:52 AM28 °FClear.8 mph75%30.25 "Hg10 mi
3:52 AM27 °FClear.6 mph75%30.24 "Hg10 mi
2:52 AM27 °FClear.5 mph75%30.25 "Hg10 mi
1:52 AM27 °FClear.6 mph75%30.24 "Hg10 mi
12:52 AM28 °FClear.6 mph72%30.23 "Hg10 mi
11:52 PM
Apr 15
29 °FClear.5 mph72%30.22 "Hg10 mi
10:52 PM29 °FClear.5 mph69%30.21 "Hg10 mi
9:52 PM29 °FClear.5 mph75%30.21 "Hg10 mi
8:52 PM32 °FClear.No wind64%30.20 "Hg10 mi
Weather by CustomWeather, © 2014

See weather overview